Regional Weather Roundup
Issued by NWS

Home | Current Version | Previous Version | Graphics & Text | Print | Product List | Glossary On
Versions: 1 2 3 4 5 6 7 8 9 10 11 12 13 14 15 16 17 18 19 20 21 22 23 24 25 26 27 28 29 30 31 32 33 34 35 36 37 38 39 40 41 42 43 44 45 46 47 48 49 50
000
ASUS43 KTOP 282008
RWRKS

WEATHER ROUNDUP FOR KANSAS
NATIONAL WEATHER SERVICE GOODLAND KS
300 PM CDT SAT MAY 28 2016

NOTE:  "FAIR" INDICATES FEW OR NO CLOUDS BELOW 12,000 FEET WITH NO
SIGNIFICANT WEATHER AND/OR OBSTRUCTIONS TO VISIBILITY.

KSZ001>006-013>018-027>032-041>047-282100-
NORTHWEST KANSAS

CITY           SKY/WX    TMP DP  RH WIND       PRES   REMARKS
GOODLAND       MOSUNNY   74  48  39 W7        29.99S
HAYS           SUNNY     73  54  49 W13       29.95S
HILL CITY      MOSUNNY   77  50  38 W6        29.95S
RUSSELL        SUNNY     74  57  55 NW12G17   29.93S
$$

KSZ061>065-074>080-084>089-282100-
SOUTHWEST KANSAS

CITY           SKY/WX    TMP DP  RH WIND       PRES   REMARKS
DODGE CITY     SUNNY     76  50  40 VRB7      29.98S
ELKHART          N/A     76  46  34 S2          N/A
GARDEN CITY    SUNNY     77  46  33 W9G20     29.98F
GREAT BEND     SUNNY     73  54  49 NW10      29.94S
LIBERAL        SUNNY     79  46  31 NW5       30.00F
PRATT          MOSUNNY   75  52  44 W12       29.96R
$$

KSZ066>073-081>083-090>101-282100-
SOUTHEAST KANSAS

CITY           SKY/WX    TMP DP  RH WIND       PRES   REMARKS
CHANUTE        MOSUNNY   79  61  53 SW15      29.93R
COFFEYVILLE    SUNNY     80  61  52 W10       29.93S
HUTCHINSON     SUNNY     78  57  48 W10       29.93S
MEDICINE LODGE   N/A     82  49  31 W6        29.93S
NEWTON         MOSUNNY   75  55  50 W13         N/A
PARSONS        SUNNY     79  61  53 W9        29.95S
WICHITA INTL   MOSUNNY   80  55  42 NW13      29.93S
WICHITA JABRA  MOSUNNY   77  59  53 W6        29.93S
WICHITA MCCONL SUNNY     78  57  48 VRB7      29.94R
WINFIELD       SUNNY     80  58  46 W9        29.95R
$$

KSZ007>012-019>026-033>040-048>060-102>105-282100-
NORTHEAST KANSAS

CITY           SKY/WX    TMP DP  RH WIND       PRES   REMARKS
CONCORDIA      MOSUNNY   75  56  51 W12       29.90S
EMPORIA        PTSUNNY   73  58  59 W6        29.93R
LAWRENCE       PTSUNNY   73  59  61 W9        29.90R
MANHATTAN      MOSUNNY   77  57  50 W10G17    29.90R
MARYSVILLE     PTSUNNY   73  57  56 W14G20    29.88S
OLATHE IND     MOSUNNY   75  58  55 SW14G22   29.92R
OLATHE EXE     MOSUNNY   74  58  57 W13G20    29.91R
SALINA         MOSUNNY   78  57  48 NW7       29.92S
TOPEKA BILLARD SUNNY     75  59  57 W7G17     29.90R
TOPEKA FORBES  MOSUNNY   76  59  55 W13       29.91R
$$




USA.gov is the U.S. government's official web portal to all federal, state and local government web resources and services.